Regional Weather Roundup
Issued by NWS

Home | Current Version | Previous Version | Graphics & Text | Print | Product List | Glossary On
Versions: 1 2 3 4 5 6 7 8 9 10 11 12 13 14 15 16 17 18 19 20 21 22 23 24 25 26 27 28 29 30 31 32 33 34 35 36 37 38 39 40 41 42 43 44 45 46 47 48 49 50
000
ASUS43 KDMX 020207
RWRIA

WEATHER ROUNDUP FOR IOWA
NATIONAL WEATHER SERVICE DES MOINES IA
900 PM CDT MON SEP 01 2014

NOTE: "FAIR" INDICATES FEW OR NO CLOUDS BELOW 12,000 FEET WITH NO
SIGNIFICANT WEATHER AND/OR OBSTRUCTIONS TO VISIBILITY.

* - THESE STATIONS ARE NOT NWS STATIONS...THUS NOT UNDER NWS
QUALITY CONTROL.  THEY ALSO DO NOT REPORT WEATHER SUCH
AS PRECIPITATION OR FOG.

IAZ001>003-012>014-020>022-031>034-043>046-020300-
   NORTHWEST IOWA

CITY           SKY/WX    TMP DP  RH WIND       PRES   REMARKS
CARROLL *      LGT RAIN  64  64 100 CALM      29.87S
CHEROKEE *     CLEAR     63  63 100 CALM      29.86S
DENISON *      CLEAR     66  66 100 CALM      29.86R
LE MARS *        N/A     66  64  94 CALM      29.86S
ORANGE CITY *  CLEAR     70  59  68 CALM      29.87S
SHELDON *      CLEAR     63  61  94 CALM      29.86R
SIOUX CITY     CLEAR     68  65  90 CALM      29.86R
SPENCER        CLEAR     64  59  83 W7        29.86R
STORM LAKE *   CLEAR     64  64 100 CALM      29.87S
$$

IAZ055>058-069>071-079>083-090>094-020300-
   SOUTHWEST IOWA

CITY           SKY/WX    TMP DP  RH WIND       PRES   REMARKS
ATLANTIC *     CLEAR     68  66  94 CALM      29.86S
AUDUBON *      CLEAR     70  64  83 CALM      29.89R
CLARINDA *     CLEAR     68  68 100 CALM      29.86F
COUNCIL BLFS * CLEAR     70  64  83 CALM      29.87R
CRESTON *      MOCLDY    68  66  94 SE7       29.85F
HARLAN  *      CLEAR     66  64  94 CALM      29.91R
LAMONI         MOCLDY    69  66  90 NW5       29.88S
RED OAK *      CLOUDY    68  66  94 CALM      29.87R
SHENANDOAH *   PTCLDY    68  66  94 CALM      29.86R
$$

IAZ047>049-059>061-072>074-084-020300-
   CENTRAL IOWA

CITY           SKY/WX    TMP DP  RH WIND       PRES   REMARKS
AMES           CLOUDY    67  65  93 W5        29.86R
ANKENY *       PTCLDY    68  66  94 CALM      29.84F
CHARITON *     MOCLDY    70  64  83 CALM      29.87F
DES MOINES     CLOUDY    74  63  68 CALM      29.83F
GRINNELL*      CLOUDY    68  63  83 W5        29.89R
KNOXVILLE *    MOCLDY    70  64  83 NW7       29.86R
MARSHALLTOWN   CLOUDY    69  64  84 SW3       29.86R
PELLA *        LGT RAIN  70  66  88 NW5       29.87S
PERRY *          N/A     68  66  94 W3        29.86S
$$

IAZ004>006-015-016-023>025-035-036-020300-
   NORTH CENTRAL IOWA

CITY           SKY/WX    TMP DP  RH WIND       PRES   REMARKS
ALGONA *       CLEAR     64  61  88 S5        29.86S
CLARION *      CLEAR     63  63 100 S7        29.87R
ESTHERVILLE    CLEAR     61  59  93 S7        29.86R
FORT DODGE *   CLOUDY    64  63  94 CALM      29.87R
MASON CITY     MOCLDY    64  60  87 W3        29.87R
FOREST CITY *  CLEAR     63  61  94 CALM      29.86R
IOWA FALLS *     N/A     68  63  83 W6        29.88R
$$

IAZ007>011-017>019-026>030-037>042-050>054-066-020300-
   NORTHEAST IOWA

CITY           SKY/WX    TMP DP  RH WIND       PRES   REMARKS
CEDAR RAPIDS   PTCLDY    67  65  93 W5        29.85R
CHARLES CITY * PTCLDY    64  61  88 W5        29.86R
CLINTON *      CLEAR     66  64  94 SW5       29.86R
DECORAH *      CLEAR     66  59  77 CALM      29.82S
DUBUQUE        PTCLDY    67  63  87 NW6       29.84R
MONTICELLO *   CLEAR     68  64  88 SW5       29.84R
OELWEIN *      PTCLDY    66  63  88 SW5       29.85R
WATERLOO       MOCLDY    68  62  81 SW6       29.84R
$$

IAZ064-065-067-068-078-020300-
   EAST CENTRAL IOWA

CITY           SKY/WX    TMP DP  RH WIND       PRES   REMARKS
DAVENPORT      CLEAR     70  66  87 W6        29.85R
IOWA CITY      PTCLDY    71  65  81 W6        29.86R
MT. PLEASANT * MOCLDY    72  66  83 W3        29.86R
MUSCATINE *    CLEAR     73  68  83 W3        29.85R
QUAD CITIES    PTCLDY    72  66  81 W5        29.84R
$$

IAZ062-063-075>077-085>089-095>099-020300-
   SOUTHEAST IOWA

CITY           SKY/WX    TMP DP  RH WIND       PRES   REMARKS
BURLINGTON     CLOUDY    72  69  90 W3        29.85R
FAIRFIELD *    MOCLDY    70  66  88 W3        29.87R
FORT MADISON * CLEAR     73  70  88 W3        29.86R
KEOKUK *       CLEAR     72  70  94 SW3       29.86R
OSKALOOSA *      N/A     70  66  88 W3        29.87R
CENTERVILLE *  CLEAR     68  68 100 CALM      29.88F
OTTUMWA        CLOUDY    70  66  87 W3        29.87R
WASHINGTON *   PTCLDY    70  68  94 CALM      29.86R
$$

ABBREVIATIONS USED IN REMARKS
   TC - TEMPERATURES IN CELSIUS
  WCI - WIND CHILL INDEX
   HX - HEAT INDEX
  VSB - VISIBILITY
$$




USA.gov is the U.S. government's official web portal to all federal, state and local government web resources and services.